Atka, AK

8:52 PM HST on February 19, 2018 (GMT -1000)
Atka

Weather History for PAAK - January, 2013

Change the Weather History Date:

Thursday, January 24, 2013

  Actual Average (PADK) Record (PADK)
Temperature  
Mean Temperature 35 °F -  
Max Temperature 37 °F 37 °F 47 °F (1991)
Min Temperature 33 °F 29 °F 9 °F (1990)
Degree Days  
Heating Degree Days 30    
Moisture  
Dew Point 27 °F    
Average Humidity 73    
Maximum Humidity 93    
Minimum Humidity 52    
Precipitation  
Precipitation 0.00 in - - ()
Sea Level Pressure  
Sea Level Pressure 29.80 in    
Wind  
Wind Speed 11 mph (SSE)    
Max Wind Speed 22 mph    
Max Gust Speed 30 mph    
Visibility 9 miles    
Events      
Averages and records for this station are not official NWS values.
T = Trace of Precipitation, MM = Missing Value Source: NWS Daily Summary

Daily Weather History Graph

Daily Weather History Graph

Search for Another Location

Airport or City:

Trip Planner

Search our weather history database for the weather conditions in past years. The results will help you decide how hot, cold, wet, or windy it might be!

Date:

Astronomy

Jan. 24, 2013 Rise Set
Actual Time 9:28 AM HST 6:10 PM HST
Civil Twilight 8:50 AM HST 6:48 PM HST
Nautical Twilight 8:08 AM HST 7:30 PM HST
Astronomical Twilight 7:28 AM HST 8:10 PM HST
Moon 4:21 PM HST (1/24) 7:40 AM HST (1/24)
Length of Visible Light 9h 58m
Length of Day
8h 42m
Waxing Gibbous, 95% of the Moon is Illuminated
Jan 24
Waxing Gibbous
Jan 26
Full
Feb 3
Last Quarter
Feb 9
New
Feb 17
First Quarter

Hourly Weather History & Observations

Time (HST) Temp. Windchill Dew Point Humidity Pressure Visibility Wind Dir Wind Speed Gust Speed Precip Events Conditions
12:16 AM 33.8 °F 24.8 °F 26.6 °F 75% 29.81 in 10.0 mi WNW 12.7 mph 19.6 mph N/A   Overcast
12:36 AM 33.8 °F 24.8 °F 26.6 °F 75% 29.82 in 10.0 mi WNW 12.7 mph - N/A   Overcast
12:56 AM 33.8 °F 25.3 °F 26.6 °F 75% 29.82 in 10.0 mi WNW 11.5 mph - N/A   Overcast
1:36 AM 33.8 °F 24.3 °F 28.4 °F 81% 29.82 in 10.0 mi West 13.8 mph - N/A   Unknown
1:56 AM 33.8 °F 25.8 °F 28.4 °F 81% 29.82 in 10.0 mi West 10.4 mph - N/A   Scattered Clouds
2:16 AM 33.8 °F 26.4 °F 26.6 °F 75% 29.83 in 10.0 mi West 9.2 mph - N/A   Mostly Cloudy
2:36 AM 33.8 °F 25.3 °F 26.6 °F 75% 29.83 in 10.0 mi West 11.5 mph - N/A   Mostly Cloudy
2:56 AM 33.8 °F 25.3 °F 26.6 °F 75% 29.83 in 10.0 mi West 11.5 mph - N/A   Mostly Cloudy
3:16 AM 33.8 °F 26.4 °F 26.6 °F 75% 29.83 in 10.0 mi West 9.2 mph - N/A   Overcast
3:36 AM 33.8 °F 25.8 °F 26.6 °F 75% 29.83 in 10.0 mi WNW 10.4 mph - N/A   Overcast
3:56 AM 33.8 °F 25.8 °F 26.6 °F 75% 29.84 in 10.0 mi WNW 10.4 mph - N/A   Overcast
4:16 AM 33.8 °F 25.8 °F 26.6 °F 75% 29.83 in 10.0 mi WNW 10.4 mph - N/A   Overcast
4:36 AM 33.8 °F 25.8 °F 26.6 °F 75% 29.83 in 10.0 mi West 10.4 mph - N/A   Overcast
4:56 AM 33.8 °F 25.8 °F 26.6 °F 75% 29.83 in 10.0 mi West 10.4 mph - N/A   Mostly Cloudy
5:16 AM 33.8 °F 27.7 °F 26.6 °F 75% 29.84 in 10.0 mi WNW 6.9 mph - N/A   Mostly Cloudy
5:36 AM 33.8 °F 29.6 °F 28.4 °F 81% 29.84 in 10.0 mi WNW 4.6 mph - N/A   Overcast
5:56 AM 33.8 °F 28.6 °F 26.6 °F 75% 29.84 in 10.0 mi NW 5.8 mph - N/A   Overcast
6:16 AM 33.8 °F 29.6 °F 26.6 °F 75% 29.85 in 10.0 mi West 4.6 mph - N/A   Overcast
6:36 AM 33.8 °F 30.8 °F 26.6 °F 75% 29.86 in 10.0 mi West 3.5 mph - N/A   Overcast
6:56 AM 33.8 °F 29.6 °F 26.6 °F 75% 29.86 in 10.0 mi West 4.6 mph - N/A   Overcast
7:16 AM 33.8 °F - 26.6 °F 75% 29.86 in 10.0 mi Calm Calm - N/A   Overcast
7:36 AM 33.8 °F - 24.8 °F 70% 29.85 in 10.0 mi Calm Calm - N/A   Overcast
7:56 AM 33.8 °F - 24.8 °F 70% 29.84 in 10.0 mi Calm Calm - N/A   Overcast
8:16 AM 33.8 °F - 24.8 °F 70% 29.86 in 10.0 mi Calm Calm - N/A   Overcast
8:36 AM 33.8 °F - 23.0 °F 65% 29.86 in 10.0 mi Calm Calm - N/A   Overcast
8:56 AM 33.8 °F 29.6 °F 23.0 °F 65% 29.86 in 10.0 mi SSW 4.6 mph - N/A   Overcast
9:16 AM 35.6 °F 32.8 °F 19.4 °F 52% 29.85 in 10.0 mi ESE 3.5 mph - N/A   Overcast
9:36 AM 33.8 °F - 21.2 °F 60% 29.86 in 10.0 mi Calm Calm - N/A   Overcast
9:56 AM 33.8 °F - 23.0 °F 65% 29.86 in 10.0 mi Calm Calm - N/A   Overcast
10:16 AM 33.8 °F 29.6 °F 21.2 °F 60% 29.86 in 10.0 mi SSE 4.6 mph - N/A   Overcast
10:36 AM 35.6 °F 30.7 °F 21.2 °F 56% 29.86 in 10.0 mi SSE 5.8 mph - N/A   Overcast
10:56 AM 35.6 °F 30.7 °F 23.0 °F 60% 29.85 in 10.0 mi SSE 5.8 mph - N/A   Overcast
11:16 AM 35.6 °F 29.2 °F 24.8 °F 65% 29.85 in 10.0 mi SE 8.1 mph - N/A   Overcast
11:36 AM 35.6 °F 28.0 °F 24.8 °F 65% 29.84 in 10.0 mi SE 10.4 mph - N/A   Overcast
11:56 AM 35.6 °F 27.5 °F 24.8 °F 65% 29.84 in 10.0 mi SSE 11.5 mph - N/A   Overcast
12:16 PM 35.6 °F 26.6 °F 24.8 °F 65% 29.83 in 10.0 mi SE 13.8 mph - N/A   Mostly Cloudy
12:36 PM 35.6 °F 27.5 °F 23.0 °F 60% 29.82 in 10.0 mi SE 11.5 mph - N/A   Scattered Clouds
12:56 PM 35.6 °F 26.2 °F 24.8 °F 65% 29.82 in 10.0 mi SE 15.0 mph - N/A   Mostly Cloudy
1:16 PM 35.6 °F 26.6 °F 24.8 °F 65% 29.82 in 10.0 mi SE 13.8 mph - N/A   Overcast
1:36 PM 37.4 °F 28.2 °F 24.8 °F 60% 29.81 in 10.0 mi SE 16.1 mph - N/A   Mostly Cloudy
1:56 PM 35.6 °F 25.5 °F 24.8 °F 65% 29.79 in 10.0 mi SE 17.3 mph - N/A   Scattered Clouds
2:16 PM 35.6 °F 25.9 °F 24.8 °F 65% 29.79 in 10.0 mi SE 16.1 mph - N/A   Scattered Clouds
2:36 PM 35.6 °F 25.5 °F 24.8 °F 65% 29.78 in 10.0 mi ESE 17.3 mph - N/A   Scattered Clouds
2:56 PM 35.6 °F 25.5 °F 24.8 °F 65% 29.77 in 10.0 mi SE 17.3 mph - N/A   Scattered Clouds
3:16 PM 35.6 °F 25.9 °F 26.6 °F 70% 29.76 in 10.0 mi SE 16.1 mph - N/A   Mostly Cloudy
3:36 PM 35.6 °F 25.2 °F 26.6 °F 70% 29.76 in 10.0 mi SE 18.4 mph - N/A   Overcast
3:56 PM 35.6 °F 25.2 °F 26.6 °F 70% 29.75 in 10.0 mi SE 18.4 mph - N/A   Overcast
4:16 PM 35.6 °F 24.5 °F 26.6 °F 70% 29.74 in 10.0 mi SE 20.7 mph - N/A   Overcast
4:36 PM 35.6 °F 24.8 °F 28.4 °F 75% 29.74 in 10.0 mi SE 19.6 mph 23.0 mph N/A   Overcast
4:56 PM 35.6 °F 24.5 °F 26.6 °F 70% 29.74 in 10.0 mi SE 20.7 mph - N/A   Overcast
5:16 PM 35.6 °F 24.8 °F 28.4 °F 75% 29.74 in 10.0 mi SE 19.6 mph - N/A   Overcast
5:36 PM 35.6 °F 25.2 °F 26.6 °F 70% 29.73 in 4.0 mi SE 18.4 mph 29.9 mph N/A   Overcast
5:56 PM 33.8 °F 22.5 °F 30.2 °F 87% 29.73 in 1.8 mi SE 19.6 mph - N/A   Overcast
6:16 PM 33.8 °F 21.9 °F 30.2 °F 87% 29.72 in 1.8 mi SE 21.9 mph 25.3 mph N/A   Overcast
6:36 PM 33.8 °F 22.2 °F 30.2 °F 87% 29.71 in 1.8 mi ESE 20.7 mph - N/A   Overcast
6:56 PM 33.8 °F 23.2 °F 32.0 °F 93% 29.71 in 2.0 mi ESE 17.3 mph - N/A   Overcast
7:16 PM 33.8 °F 23.5 °F 32.0 °F 93% 29.70 in 2.0 mi ESE 16.1 mph - N/A   Overcast
7:36 PM 33.8 °F 23.9 °F 30.2 °F 87% 29.70 in 1.8 mi East 15.0 mph - N/A   Overcast
7:56 PM 33.8 °F 25.3 °F 32.0 °F 93% 29.69 in 1.8 mi ESE 11.5 mph - N/A   Overcast
8:16 PM 33.8 °F 24.8 °F 32.0 °F 93% 29.69 in 1.8 mi East 12.7 mph - N/A   Overcast
11:16 PM 35.6 °F 30.7 °F 33.8 °F 93% 29.67 in 5.0 mi South 5.8 mph - N/A   Overcast
11:36 PM 37.4 °F 28.9 °F 35.6 °F 93% 29.67 in 10.0 mi SSW 13.8 mph - N/A   Overcast
11:56 PM 37.4 °F 30.3 °F 33.8 °F 87% 29.68 in 9.0 mi SSW 10.4 mph - N/A   Mostly Cloudy